FW9914 Weather Reports


Display with metric or nautical units.
time (UTC)temp
F
wind
direction
speed
MPH
gust
MPH
rain 1hr
in
rain 24hr
in
rain mn
in
humidity
%
barometer
mb
20260503020134 65 164 0.0 0.0 0.00 0.00 0.00 36 1011.4
20260503010129 71 164 0.0 0.0 0.00 0.00 0.00 24 1012.1
20260503000211 73 164 0.0 0.0 0.00 0.00 0.00 25 1013.2
20260502230118 73 165 0.0 0.0 0.00 0.00 0.00 26 1014.1
20260502220109 73 165 0.0 0.0 0.00 0.00 0.00 27 1015.1
20260502210149 72 165 0.0 0.0 0.00 0.00 0.00 28 1016.3
20260502200158 71 164 0.0 0.0 0.00 0.00 0.00 31 1017.0
20260502190113 68 164 0.0 0.0 0.00 0.00 0.00 32 1017.9
20260502180121 65 164 0.0 0.0 0.00 0.00 0.00 36 1018.5
20260502170123 62 164 0.0 0.0 0.00 0.00 0.00 39 1019.2
20260502160146 55 158 0.0 0.0 0.00 0.00 0.00 54 1019.7
20260502150149 47 158 0.0 0.0 0.00 0.00 0.00 77 1019.9
20260502130115 29 158 0.0 0.0 0.00 0.00 0.00 93 1020.1
20260502120127 29 158 0.0 0.0 0.00 0.00 0.00 90 1020.1
20260502110202 30 158 0.0 0.0 0.00 0.00 0.00 90 1019.9
20260502100209 32 158 0.0 0.0 0.00 0.00 0.00 88 1019.7
20260502090149 34 158 0.0 0.0 0.00 0.00 0.00 86 1019.6
20260502070139 37 158 0.0 0.0 0.00 0.00 0.00 84 1019.1
20260502060159 41 158 0.0 0.0 0.00 0.00 0.00 78 1018.9
20260502050137 46 158 0.0 0.0 0.00 0.00 0.00 67 1018.1
20260502040147 49 158 0.0 0.0 0.00 0.00 0.00 64 1018.0
20260502030133 53 158 0.0 0.0 0.00 0.00 0.00 57 1017.2